Tracking 23731 objects as of 26-Sep-2021
HD Live streaming from Space Station
objects crossing your sky now

SUPERBIRD C

Track SUPERBIRD C now!
SUPERBIRD C is classified as:


NORAD ID: 24880
Int'l Code: 1997-036A
Perigee: 36,111.0 km
Apogee: 36,156.5 km
Inclination: 9.2 °
Period: 1,453.5 minutes
Semi major axis: 42504 km
RCS: 12.5892 m2 (large)
Launch date: July 28, 1997
Source: Japan (JPN)
Launch site: AIR FORCE EASTERN TEST RANGE (AFETR)

14 Ku-band; Asia-Pacific region; voice and video communications.
aabbcc
Your satellite tracking list
Your tracking list is empty




NASA's NSSDC Master Catalog

Two Line Element Set (TLE):
1 24880U 97036A   21268.29433819 -.00000163  00000-0  00000-0 0  9996
2 24880   9.1708  45.2441 0005350 335.2319  24.7934  0.99071125 47776
Source of the keplerian elements: AFSPC